Flight Track Log - Related Links

Times and Time Zones

All times are in EDT time to prevent confusion due to time zone crossing. See the LYM752 flight status page for this flight to view local times or setup timezone preferences in your user account.

Time Position Orientation Groundspeed Altitude Reporting Facility
EDT Latitude Longitude Course Direction KTS MPH feet Rate Location/Type
Thu 10:32:58 AM 39.4747 -101.4025 282° West 124 143 10,000  Level Denver Center
Thu 10:34:00 AM 39.4792 -101.4531 277° West 140 161 10,000  Level Denver Center
Thu 10:35:02 AM 39.4897 -101.5211 281° West 166 191 10,000 48 Level Denver Center
Thu 10:36:04 AM 39.4992 -101.5783 282° West 170 196 10,100  Climbing Denver Center
Thu 10:37:06 AM 39.5064 -101.6464 278° West 171 197 10,000 -48 Descending Denver Center
Thu 10:38:00 AM 39.4632 -101.3289 282° West  Level FlightAware Approximate
Thu 10:38:08 AM 39.5122 -101.7028 278° West 169 194 10,000  Level Denver Center
Thu 10:39:10 AM 39.5211 -101.7708 280° West 169 194 10,000 48 Level Denver Center
Thu 10:40:12 AM 39.5269 -101.8278 278° West 169 194 10,100 48 Climbing Denver Center
Thu 10:41:14 AM 39.5328 -101.8828 278° West 166 191 10,100 -194 Level Denver Center
Thu 10:42:16 AM 39.5467 -101.9481 285° West 165 190 9,700 -48 Descending Denver Center
Thu 10:43:18 AM 39.5556 -102.0058 281° West 163 188 10,000 145 Climbing Denver Center
Thu 10:44:20 AM 39.5578 -102.0683 273° West 164 189 10,000  Level Denver Center
Thu 10:45:23 AM 39.5675 -102.1236 283° West 164 189 10,000  Level Denver Center
Thu 10:46:25 AM 39.5753 -102.1883 279° West 164 189 10,000  Level Denver Center
Thu 10:47:27 AM 39.5847 -102.2450 282° West 166 191 10,000  Level Denver Center
Thu 10:48:28 AM 39.5917 -102.2925 281° West 168 193 10,000  Level Denver Center
Thu 10:49:31 AM 39.6042 -102.3686 282° West 168 193 10,000  Level Denver Center
Thu 10:50:33 AM 39.6128 -102.4272 281° West 166 191 10,000  Level Denver Center
Thu 10:51:35 AM 39.6189 -102.4886 277° West 169 194 10,000  Level Denver Center
Thu 10:52:37 AM 39.6189 -102.5492 270° West 169 194 10,000  Level Denver Center
Thu 10:53:39 AM 39.6250 -102.6206 276° West 168 193 10,000  Level Denver Center
Thu 10:54:41 AM 39.6372 -102.6844 284° West 170 196 10,000  Level Denver Center
Thu 10:55:43 AM 39.6464 -102.7433 281° West 175 201 10,000  Level Denver Center
Thu 10:56:45 AM 39.6561 -102.8050 282° West 175 201 10,000  Level Denver Center
Thu 10:57:47 AM 39.6606 -102.8539 277° West 174 200 10,000  Level Denver Center
Thu 10:58:49 AM 39.6694 -102.9372 278° West 169 194 10,000  Level Denver Center
Thu 10:59:51 AM 39.6742 -103.0000 276° West 173 199 10,000  Level Denver Center
Thu 11:00:53 AM 39.6822 -103.0600 280° West 169 194 10,000  Level Denver Center
Thu 11:01:56 AM 39.6894 -103.1200 279° West 169 194 10,000 48 Level Denver Center
Thu 11:02:58 AM 39.6958 -103.1792 278° West 168 193 10,100 48 Climbing Denver Center
Thu 11:04:00 AM 39.7031 -103.2386 279° West 167 192 10,100  Level Denver Center
Thu 11:05:02 AM 39.7111 -103.3111 278° West 169 194 10,100  Level Denver Center
Thu 11:06:04 AM 39.7175 -103.3717 278° West 170 196 10,100  Level Denver Center
Thu 11:07:06 AM 39.7244 -103.4325 278° West 170 196 10,100  Level Denver Center
Thu 11:08:08 AM 39.7314 -103.4928 279° West 170 196 10,100  Level Denver Center
Thu 11:09:10 AM 39.7369 -103.5533 277° West 169 194 10,100  Level Denver Center
Thu 11:10:12 AM 39.7436 -103.6133 278° West 169 194 10,100  Level Denver Center
Thu 11:11:14 AM 39.7533 -103.6864 280° West 170 196 10,100  Level Denver Center
Thu 11:12:16 AM 39.7667 -103.7450 287° West 171 197 10,100 -145 Level Denver Center
Thu 11:13:18 AM 39.7942 -103.8058 300° West 179 206 9,800 -484 Descending Denver Center
Thu 11:14:20 AM 39.8158 -103.8689 294° West 190 219 9,100 -726 Descending Denver Center
Thu 11:15:22 AM 39.8378 -103.9353 293° West 199 229 8,300 -484 Descending Denver Center
Thu 11:16:24 AM 39.8625 -104.0017 296° West 191 220 8,100 -97 Descending Denver Center
Thu 11:17:26 AM 39.8711 -104.0517 283° West 173 199 8,100  Level Denver Center
Thu 11:18:28 AM 39.8678 -104.1283 267° West 172 198 8,100  Level Denver Center
Thu 11:19:30 AM 39.8717 -104.1900 275° West 170 196 8,100  Level Denver Center
Thu 11:20:32 AM 39.8722 -104.2581 271° West 174 200 8,100  Level Denver Center
Thu 11:21:34 AM 39.8742 -104.3208 272° West 173 199 8,100  Level Denver Center
Thu 11:22:31 AM 39.8833 -104.3833 281° West 175 201 8,100 -51 Level Denver TRACON
Thu 11:23:31 AM 39.8667 -104.4500 252° West 179 206 8,000 -415 Descending Denver TRACON
Thu 11:24:41 AM 39.8761 -104.5131 281° West 168 193 7,200 -850 Descending Denver Center
Thu 11:25:31 AM 39.8833 -104.5667 280° West 147 169 6,300 -927 Descending Denver TRACON
Thu 11:26:31 AM 39.8833 -104.6167 270° West 145 167 5,500 -397 Descending Denver TRACON
Thu 11:27:47 AM 39.8778 -104.6675 262° West 144 166 5,400 -79 Descending Denver Center
Thu 11:29:00 AM 39.8617 -104.6732 247° West  Level Estimated
Thu 11:36:00 AM 39.8617 -104.6732 247° West  Level Estimated
Thu 11:37:00 AM 39.8617 -104.6732 247° West  Level Estimated

Login

Don't have an account? Register now (free) for customized features, flight alerts, and more!